Regional Weather Roundup
Issued by NWS

Home | Current Version | Previous Version | Text Only | Print | Product List | Glossary Off
Versions: 1 2 3 4 5 6 7 8 9 10 11 12 13 14 15 16 17 18 19 20 21 22 23 24 25 26 27 28 29 30 31 32 33 34 35 36 37 38 39 40 41 42 43 44 45 46 47 48 49 50

000
ASUS43 KFSD 241910
RWRSD

WEATHER ROUNDUP FOR SOUTH DAKOTA
NATIONAL WEATHER SERVICE SIOUX FALLS SD
200 PM CDT FRI APR 24 2015

NOTE: "FAIR" INDICATES FEW OR NO CLOUDS BELOW 12,000 FEET WITH NO
SIGNIFICANT WEATHER AND/OR OBSTRUCTIONS TO VISIBILITY.


SDZ001>005-009-010-012>017-242000-
NORTHWEST AND NORTH CENTRAL SOUTH DAKOTA

CITY           SKY/WX    TMP DP  RH WIND       PRES   REMARKS
BUFFALO          N/A     68  32  26 E14       29.55F
FAITH            N/A     68  38  33 NE13G20   29.57F
MOBRIDGE       MOSUNNY   65  42  43 NE13      29.56F
$$

SDZ012>016-024>037-041>051-057-063-072>074-242000-
SOUTHWEST AND SOUTH CENTRAL SOUTH DAKOTA

CITY           SKY/WX    TMP DP  RH WIND       PRES   REMARKS
RAPID CTY ARPT PTSUNNY   68  41  37 NE8G17    29.59F
PIERRE         MOSUNNY   71  46  40 N10G16    29.52F
CUSTER         HVY RAIN  42  40  92 N10       29.69S FOG
ELLSWORTH AFB  CLOUDY    67  41  38 NE7       29.59F
PHILIP         SUNNY     74  45  35 N15       29.54F
PINE RIDGE     SUNNY     69  42  37 CALM      29.58F
SPEARFISH      FAIR      63  39  42 E9G17     29.63S
WINNER         FAIR      76  43  30 SW7       29.52F
$$

SDZ004>011-016>023-039-040-242000-
NORTHEAST SOUTH DAKOTA

CITY           SKY/WX    TMP DP  RH WIND       PRES   REMARKS
ABERDEEN       MOSUNNY   69  45  41 E12       29.56F
WATERTOWN      MOSUNNY   66  45  46 SE9G21    29.60F
BROOKINGS      CLOUDY    64  46  52 SE12G21   29.61F
SISSETON         N/A     57  48  72 SE21      29.65F
$$

SDZ017-020-022-023-036>040-048>070-242000-
SOUTHEAST SOUTH DAKOTA

CITY           SKY/WX    TMP DP  RH WIND       PRES   REMARKS
SIOUX FALLS    CLOUDY    65  50  58 SE14      29.61F
HURON          PTSUNNY   71  48  43 S8        29.53F
CHAMBERLAIN    SUNNY     74  45  35 CALM      29.50F
MITCHELL       MOSUNNY   72  49  44 S12G20    29.54F
YANKTON        MOSUNNY   73  52  46 S14       29.56F
$$

ABBREVIATIONS USED IN REMARKS
   TC - TEMPERATURE IN CELSIUS
  WCI - WIND CHILL INDEX
   HX - HEAT INDEX
  VSB - VISIBILITY



USA.gov is the U.S. government's official web portal to all federal, state and local government web resources and services.